Date,TemperatureHighF,TemperatureAvgF,TemperatureLowF,DewpointHighF,DewpointAvgF,DewpointLowF,HumidityHigh,HumidityAvg,HumidityLow,PressureMaxIn,PressureMinIn,WindSpeedMaxMPH,WindSpeedAvgMPH,GustSpeedMaxMPH,PrecipitationSumIn
2013-1-1,44.1,43.6,43.2,17.5,16.4,15.2,35,33,31,30.09,30.04,4,1,4,0.00
2013-2-28,39.6,38.7,38.3,27.0,26.3,25.3,63,61,58,29.85,29.69,10,2,10,0.00
2013-3-5,50.0,39.9,33.4,38.0,33.8,26.3,99,83,41,29.89,29.65,13,3,13,0.38
2013-3-6,33.4,33.4,33.4,33.2,33.2,33.2,99,99,99,29.66,29.66,2,2,2,0.00
2013-3-9,56.1,46.4,39.6,30.4,29.7,28.4,68,53,35,30.33,30.28,2,1,2,0.00
2013-3-10,67.3,49.6,31.8,36.7,31.9,27.6,86,54,30,30.34,30.19,8,2,9,0.00
2013-3-11,59.5,51.6,42.6,54.3,34.8,24.7,95,54,36,30.22,29.90,8,2,8,0.00
2013-3-12,61.2,53.4,41.4,55.9,44.0,30.0,99,73,45,30.03,29.75,14,2,14,0.17
2013-3-13,50.9,41.6,33.3,31.8,24.9,13.9,76,52,34,30.19,29.99,21,3,21,0.00
2013-3-14,52.3,39.5,29.3,20.0,14.5,11.2,51,37,22,30.28,30.14,14,4,14,0.00
2013-3-15,66.2,49.8,30.6,37.6,26.4,13.4,58,41,33,30.19,29.88,11,3,11,0.00
2013-3-16,78.4,59.4,42.8,59.7,46.3,34.0,99,65,37,29.89,29.62,16,2,16,0.00
2013-3-17,56.8,44.5,36.5,52.4,43.5,36.2,99,96,83,30.23,29.88,11,3,11,0.56
2013-3-18,36.7,34.3,32.7,36.4,34.0,32.5,99,99,99,30.25,29.92,11,4,11,0.20
2013-3-19,58.1,41.0,34.2,43.1,35.9,30.2,99,86,37,29.94,29.82,18,2,18,0.00
2013-3-20,56.7,44.9,31.3,24.3,12.9,1.2,50,28,16,30.10,29.81,8,2,8,0.00
2013-3-21,41.0,33.7,26.8,26.7,12.2,6.1,59,41,26,30.01,29.81,12,4,12,0.00
2013-3-22,51.3,36.7,23.2,18.4,11.3,6.7,52,36,19,30.09,29.95,14,2,14,0.00
2013-3-23,59.0,42.9,29.3,27.9,21.5,15.4,64,45,24,30.08,29.92,9,2,9,0.00
2013-3-24,41.4,35.6,31.8,33.6,29.2,21.3,99,80,45,29.99,29.62,7,1,8,0.00
2013-3-25,46.8,37.2,31.1,38.4,30.5,24.6,99,79,53,29.81,29.56,13,2,13,0.63
2013-3-26,49.8,41.6,36.1,30.8,26.8,24.6,66,56,44,30.14,29.80,12,3,12,0.00
2013-3-27,49.3,41.2,34.0,28.2,25.0,22.6,73,53,39,30.25,30.14,12,3,12,0.00
2013-3-28,59.0,44.9,38.1,28.1,23.9,19.4,63,44,29,30.30,30.22,12,3,12,0.00
2013-3-29,62.4,46.4,32.0,34.4,25.9,23.2,73,48,24,30.34,30.19,10,2,10,0.00
2013-3-30,66.0,50.5,33.8,39.7,30.0,25.9,74,48,28,30.28,30.08,10,2,10,0.00
2013-3-31,61.7,51.1,44.2,54.9,44.3,4.5,99,79,10,30.10,29.80,7,1,7,0.05
2013-4-1,65.3,53.0,43.3,47.7,40.6,26.9,90,65,41,30.05,29.86,22,3,22,0.00
2013-4-2,56.3,46.3,34.5,27.4,19.4,10.3,65,37,17,30.19,30.05,13,2,13,0.00
2013-4-3,57.7,46.4,36.0,20.8,14.7,8.6,43,29,15,30.36,30.19,10,2,13,0.00
2013-4-4,45.0,37.6,33.1,34.8,22.1,11.8,99,58,31,30.42,30.04,10,2,11,0.00
2013-4-5,64.6,49.0,34.7,46.8,36.6,31.1,99,68,32,30.07,29.93,8,2,10,0.17
2013-4-6,62.4,50.9,35.4,37.5,32.3,25.2,85,52,31,30.29,30.07,13,3,15,0.00
2013-4-7,73.6,58.2,42.3,47.7,39.5,26.4,77,51,34,30.26,30.06,9,3,11,0.00
2013-4-8,83.3,66.1,49.3,54.6,48.8,43.6,84,57,32,30.17,30.01,12,2,15,0.00
2013-4-9,91.4,72.8,55.0,59.0,53.9,50.0,85,55,30,30.19,29.94,13,3,15,0.04
2013-4-10,95.4,78.0,59.9,62.7,56.9,50.4,85,52,23,30.02,29.82,13,4,17,0.00
2013-4-11,88.3,75.2,61.7,62.7,58.4,53.8,82,58,34,29.88,29.67,17,4,19,0.00
2013-4-12,81.1,68.4,60.3,70.1,56.0,36.5,99,70,27,29.75,29.59,24,6,27,0.44
2013-4-13,77.2,63.4,52.9,40.8,34.1,28.1,52,35,21,29.95,29.76,20,8,27,0.00
2013-4-14,81.9,65.7,42.4,47.0,38.0,28.1,79,39,24,30.04,28.63,15,4,15,0.00
2013-4-15,68.2,58.3,52.7,56.5,53.9,46.1,99,86,45,30.19,29.99,15,3,17,0.21
2013-4-16,80.1,66.2,56.1,66.1,60.3,55.9,99,83,58,30.24,30.09,11,3,13,0.01
2013-4-17,86.2,70.3,60.4,66.8,62.8,60.2,99,79,49,30.17,30.06,7,2,9,0.00
2013-4-18,81.3,69.5,59.5,67.5,61.9,56.9,99,79,50,30.11,29.91,15,4,17,0.00
2013-4-19,72.0,65.6,51.3,68.9,61.6,38.5,99,87,60,29.91,29.60,24,6,24,0.26
2013-4-20,65.7,52.4,42.6,39.9,29.8,23.6,65,43,25,30.25,29.83,19,7,24,0.00
2013-4-21,62.2,50.2,35.2,36.7,31.1,25.6,82,49,35,30.45,30.24,10,4,12,0.00
2013-4-22,65.3,51.5,33.6,36.9,31.2,22.9,94,49,21,30.43,30.22,14,4,14,0.00
2013-4-23,72.9,58.3,46.8,50.7,43.7,35.6,78,59,42,30.26,30.02,11,3,13,0.00
2013-4-24,85.5,63.3,45.1,63.9,53.3,44.7,99,73,41,30.06,29.82,15,3,18,0.04
2013-4-25,73.9,57.1,41.9,46.9,31.3,18.8,72,42,16,30.25,30.01,18,5,18,0.00
2013-4-26,73.2,57.3,37.9,41.4,35.2,27.0,85,46,25,30.38,26.60,9,2,9,0.00
2013-4-27,71.6,59.1,47.7,52.2,45.9,41.3,87,64,41,30.30,30.19,8,2,8,0.00
2013-4-28,57.2,54.4,52.2,56.0,53.2,50.9,99,96,81,30.19,30.00,11,3,11,0.25
2013-4-29,76.6,59.8,51.3,63.1,55.9,51.0,99,89,60,30.05,29.92,5,1,5,0.02
2013-4-30,77.2,62.0,56.1,62.8,58.6,55.8,99,89,61,30.17,29.99,11,2,11,0.00
2013-5-1,77.5,62.2,55.6,60.1,54.3,43.4,99,78,40,30.31,30.16,15,4,16,0.01
2013-5-2,76.8,63.2,55.2,54.9,46.6,40.2,74,56,39,30.31,30.19,12,3,15,0.00
2013-5-3,69.1,58.0,47.1,53.0,48.1,39.6,98,71,51,30.27,30.14,15,4,17,0.00
2013-5-4,68.7,55.9,47.8,50.2,45.4,41.2,81,69,45,30.19,30.06,14,5,18,0.00
2013-5-5,59.4,54.4,46.9,53.3,44.0,31.2,99,69,45,30.10,26.95,14,5,18,0.05
2013-5-6,59.9,55.9,53.6,58.6,55.2,51.7,99,98,88,30.00,28.52,23,8,23,0.98
2013-5-7,64.6,56.2,50.7,59.6,55.4,50.5,99,97,73,29.89,26.82,12,2,12,0.41
2013-5-8,67.5,55.2,50.5,60.3,53.8,50.1,99,95,73,29.96,26.91,7,1,7,0.30
2013-5-9,84.7,65.5,45.3,64.3,54.3,45.1,99,72,37,30.01,26.91,15,3,15,0.00
2013-5-10,86.5,68.8,53.1,66.3,59.8,52.8,99,77,46,30.02,26.90,24,2,24,0.22
2013-5-11,82.8,70.6,60.4,67.5,63.8,60.2,99,81,55,29.90,29.72,9,3,11,0.04
2013-5-17,86.2,71.3,61.3,72.0,64.0,58.6,99,80,45,30.10,29.95,7,2,7,0.28
2013-5-18,72.1,66.2,63.3,68.8,65.3,63.0,99,97,86,30.14,30.06,8,2,8,0.30
2013-5-19,73.6,66.5,63.3,73.3,66.2,63.0,99,99,99,30.10,30.00,5,2,5,0.22
2013-5-20,84.4,71.2,65.3,76.5,69.3,65.0,99,95,65,30.07,29.97,6,1,6,0.22
2013-5-21,95.0,77.8,65.1,74.5,69.9,64.8,99,80,42,30.00,29.86,8,2,8,0.00
2013-5-22,87.8,73.0,61.0,75.8,67.9,60.7,99,86,63,29.94,29.84,11,2,11,0.20
2013-5-23,88.3,73.8,62.6,74.2,67.8,62.3,99,83,51,29.89,29.73,11,2,17,0.12
2013-5-24,64.6,60.3,55.4,63.1,52.7,39.8,99,77,45,30.07,29.78,1,0,1,0.00
2013-5-25,72.3,59.3,42.8,39.4,34.4,28.5,72,42,22,30.20,30.11,0,0,0,0.00
2013-5-26,79.5,69.2,48.7,49.2,42.7,38.5,87,43,25,30.20,30.10,12,3,13,0.00
2013-5-27,80.4,68.1,46.2,61.8,55.8,42.2,90,67,37,30.24,30.08,7,2,8,0.00
2013-5-28,92.7,73.6,54.7,70.6,63.3,54.4,99,73,40,30.17,30.04,9,2,13,0.00
2013-5-29,96.3,78.6,60.6,71.7,65.9,60.2,99,69,33,30.15,30.07,8,2,11,0.00
2013-5-30,91.4,77.2,59.7,73.1,66.4,59.5,99,73,44,30.20,30.10,12,2,13,0.00
2013-5-31,92.5,77.0,60.4,73.4,67.0,60.2,99,74,48,30.16,30.02,12,2,16,0.00
2013-6-1,89.4,74.6,61.3,75.4,68.7,61.1,99,83,60,30.06,29.92,9,1,11,0.00
2013-6-2,85.8,71.9,64.9,77.0,69.9,64.7,99,94,66,29.96,29.85,9,2,11,0.54
2013-6-3,89.1,74.0,63.7,74.9,67.6,63.4,99,83,52,29.95,29.82,11,1,13,0.00
2013-6-4,84.2,70.4,55.8,68.4,62.5,55.5,99,79,46,30.08,29.94,0,0,0,0.00
2013-6-5,78.3,69.0,60.6,69.2,65.0,59.6,99,88,65,30.11,29.99,9,1,10,0.00
2013-6-6,68.0,64.3,61.2,67.7,64.1,60.9,99,99,99,30.00,29.79,0,0,0,1.38
2013-6-7,78.4,69.4,63.3,75.6,68.7,63.1,99,98,86,29.80,29.59,6,0,8,0.20
2013-6-8,92.1,72.0,60.4,70.8,64.9,60.2,99,81,45,30.07,29.78,8,2,11,0.07
2013-6-9,89.2,75.7,63.7,75.5,69.7,63.4,99,84,58,30.12,30.00,11,2,12,0.21
2013-6-10,86.4,72.6,66.0,79.1,71.4,65.8,99,96,71,30.04,29.80,13,2,15,0.26
2013-6-11,87.1,74.3,63.7,71.5,67.1,63.4,99,80,55,29.91,29.83,19,4,20,0.05
2013-6-12,96.3,80.7,64.8,79.5,72.8,64.5,99,79,55,29.93,29.81,4,0,5,0.00
2013-6-13,93.0,79.5,70.9,78.5,74.2,68.4,99,86,57,29.83,29.56,1,0,1,0.05
2013-6-14,82.2,72.2,63.0,61.8,59.1,55.1,94,65,48,30.01,29.74,0,0,0,0.00
2013-6-15,89.2,72.7,54.9,66.0,61.3,54.6,99,72,41,30.09,29.98,0,0,0,0.00
2013-6-16,89.6,74.9,58.8,72.3,67.1,58.5,99,79,54,30.03,29.93,0,0,0,0.06
2013-6-17,90.5,77.0,66.9,76.6,71.1,66.6,99,84,59,29.99,29.87,0,0,0,0.05
2013-6-18,79.3,71.6,63.1,74.9,69.8,62.9,99,94,75,29.93,29.79,0,0,0,0.35
2013-6-19,83.8,70.4,59.4,72.3,66.5,59.1,99,89,65,30.11,29.88,0,0,0,0.51
2013-6-20,81.0,73.0,65.7,73.0,69.4,65.4,99,89,68,30.21,30.11,7,1,8,0.00
2013-6-21,87.6,75.8,61.2,72.3,67.0,59.5,99,76,57,30.25,30.16,6,1,8,0.00
2013-6-22,92.1,75.3,58.3,74.2,66.9,58.0,99,78,50,30.23,30.09,0,0,0,0.00
2013-6-23,95.2,80.4,67.1,76.6,72.2,66.7,99,78,41,30.17,30.06,0,0,0,0.00
2013-6-24,93.4,77.8,67.6,78.5,72.8,67.2,99,86,54,30.15,30.02,0,0,1,0.12
2013-6-25,95.2,79.8,65.8,79.5,72.8,65.6,99,81,54,30.08,29.94,0,0,1,0.01
2013-6-26,94.5,78.8,67.3,79.8,73.2,66.8,99,85,59,29.97,29.86,0,0,1,0.30
2013-6-28,93.2,81.2,69.3,76.9,70.7,62.6,99,74,44,29.70,29.51,0,0,0,0.00
2013-6-29,89.1,76.2,64.8,73.3,69.9,64.5,99,83,55,29.68,29.56,0,0,0,0.28
2013-7-3,80.4,75.2,71.2,79.5,74.8,70.9,99,99,97,30.19,30.15,5,1,5,0.79
2013-7-4,90.7,79.1,70.5,81.7,75.9,70.2,99,91,69,30.22,30.14,13,1,16,0.99
2013-7-5,92.1,79.6,71.1,80.4,75.6,70.6,99,88,66,30.21,30.11,10,3,12,0.04
2013-7-6,91.9,78.8,68.9,79.8,74.0,68.6,99,87,59,30.20,30.07,12,3,14,0.01
2013-7-7,90.3,75.9,69.6,82.8,73.8,69.2,99,94,71,30.13,30.04,10,0,13,0.41
2013-7-8,94.1,78.1,65.8,79.6,72.6,65.6,99,85,54,30.14,30.05,0,0,0,0.00
2013-7-9,95.5,80.3,69.1,79.5,74.4,68.8,99,84,50,30.11,28.72,0,0,0,0.00
2013-7-10,96.3,76.8,70.5,81.8,74.3,70.3,99,93,60,28.76,28.62,0,0,1,1.02
2013-7-11,91.4,77.4,69.4,80.2,74.5,69.2,99,92,64,28.65,28.56,0,0,1,0.34
2013-7-12,80.1,71.6,67.5,72.7,69.4,67.0,99,93,73,28.75,28.58,0,0,1,0.01
2013-7-13,84.4,73.2,67.3,77.6,71.6,67.0,99,95,78,28.88,28.73,0,0,0,0.19
2013-7-14,89.8,78.8,72.1,78.9,74.8,71.9,99,89,63,30.29,28.88,0,0,1,0.01
2013-7-15,97.0,82.3,69.8,80.7,74.9,69.5,99,81,48,30.31,30.21,0,0,0,0.00
2013-7-16,99.7,83.3,68.7,80.6,74.7,68.5,99,78,50,30.27,30.16,5,0,11,0.15
2013-7-22,94.8,80.3,72.5,80.1,75.9,72.2,99,88,54,29.93,29.77,0,0,0,0.07
2013-7-23,94.5,80.9,70.9,77.2,73.4,70.6,99,80,54,29.79,29.70,0,0,0,0.00
2013-7-24,92.1,80.0,70.5,76.1,71.4,68.7,99,78,47,29.87,29.72,0,0,0,0.00
2013-7-25,86.9,75.4,67.1,70.9,66.8,62.8,99,76,54,30.02,29.87,0,0,0,0.00
2013-7-26,85.5,74.0,62.4,73.3,68.7,62.1,99,85,65,30.07,29.97,0,0,0,0.00
2013-7-27,75.0,71.0,68.4,74.7,70.5,68.1,99,98,92,30.01,29.90,7,1,7,0.37
2013-7-28,90.7,82.1,67.6,76.1,73.0,67.3,99,75,57,29.95,29.87,5,2,9,0.01
2013-8-5,81.5,73.0,60.8,69.4,65.4,60.5,99,79,55,30.08,29.97,0,0,0,0.00
2013-8-6,89.4,75.2,67.1,77.0,71.4,66.8,99,89,67,30.00,29.93,0,0,0,0.52
2013-8-7,81.3,74.1,70.2,78.3,73.6,69.9,99,98,89,30.04,29.98,0,0,0,0.15
2013-8-8,85.8,75.4,70.9,80.8,74.3,70.6,99,97,82,30.01,29.96,0,0,0,0.28
2013-8-9,93.0,80.2,70.5,82.2,76.7,70.2,99,90,67,29.99,29.91,1,0,1,0.00
2013-8-10,93.7,81.6,70.7,79.4,76.0,70.4,99,85,59,30.05,29.97,0,0,0,0.00
2013-8-11,94.5,79.6,71.4,79.6,74.8,71.0,99,87,59,30.08,29.98,14,2,19,0.45
2013-8-12,97.2,79.7,68.7,79.6,73.7,68.5,99,84,47,30.03,29.91,9,1,10,0.02
2013-8-13,88.5,75.5,70.5,80.2,73.0,68.6,99,92,73,29.93,29.76,0,0,0,0.37
2013-8-14,82.8,71.7,61.9,70.8,59.6,52.8,99,68,44,30.10,29.84,0,0,1,0.00
2013-8-15,82.0,66.1,52.7,61.5,57.1,52.4,99,76,46,30.15,30.04,0,0,1,0.00
2013-8-16,82.2,65.5,51.8,65.6,59.2,51.5,99,83,55,30.16,30.07,0,0,0,0.00
2013-8-17,75.2,63.9,55.9,67.8,61.3,55.7,99,92,65,30.20,30.13,0,0,0,0.18
2013-8-18,74.5,66.3,61.7,74.2,65.9,61.3,99,99,93,30.19,30.11,7,1,8,0.32
2013-8-19,81.3,69.8,64.0,76.6,69.0,63.8,99,97,83,30.17,30.04,0,0,0,0.05
2013-8-20,90.9,74.8,65.5,78.4,71.6,65.2,99,91,62,30.16,30.07,8,0,12,0.00
2013-8-21,89.4,75.9,67.6,81.4,73.7,67.4,99,93,71,30.18,30.06,0,0,0,0.14
2013-8-22,90.9,77.1,63.3,78.0,71.9,63.1,99,85,60,30.11,29.97,0,0,1,0.01
2013-8-23,90.1,73.9,63.7,78.1,71.3,63.4,99,92,62,30.10,29.92,0,0,0,0.01
2013-8-24,86.2,70.2,59.5,69.8,64.4,59.3,99,84,53,30.28,30.10,2,0,2,0.01
2013-8-26,89.4,72.2,56.3,71.7,64.9,56.0,99,81,49,30.29,30.05,0,0,0,0.00
2013-8-27,89.1,76.8,63.0,77.1,71.3,62.7,99,85,63,30.06,29.92,0,0,0,0.00
2013-8-28,87.8,75.8,70.5,82.6,74.7,70.2,99,96,74,29.97,29.82,0,0,0,0.11
2013-8-29,93.0,78.7,70.3,81.1,75.1,70.0,99,90,63,30.00,29.82,0,0,0,0.08
2013-8-30,91.4,76.7,67.8,77.5,73.2,67.5,99,90,62,30.02,29.89,0,0,0,0.00
2013-8-31,94.6,75.7,66.6,80.4,72.7,66.3,99,92,58,29.92,29.82,0,0,0,0.25
2013-9-1,93.4,79.5,64.4,79.7,74.9,64.1,99,87,59,29.86,29.75,9,1,9,0.04
2013-9-2,93.6,78.2,65.7,78.6,72.6,65.2,99,85,55,29.85,29.75,1,0,2,0.00
2013-9-3,91.8,77.6,64.8,78.7,70.1,62.4,99,80,50,29.96,29.77,0,0,1,0.00
2013-9-4,89.6,71.5,55.8,70.6,64.2,55.5,99,81,45,30.07,29.95,0,0,0,0.00
2013-9-5,90.9,72.5,56.5,68.6,63.6,56.2,99,78,42,30.11,30.01,0,0,1,0.00
2013-9-6,84.9,68.5,58.8,66.4,61.6,58.6,99,81,49,30.18,30.07,0,0,1,0.00
2013-9-7,85.3,69.0,53.6,72.5,64.0,53.3,99,86,59,30.11,29.92,0,0,1,0.00
2013-9-8,92.1,73.9,59.9,76.4,68.4,59.6,99,85,57,29.97,29.87,0,0,0,0.00
2013-9-9,83.8,71.7,64.8,74.6,69.7,64.5,99,94,73,30.14,29.97,0,0,0,0.00
2013-9-10,95.7,77.7,64.9,80.6,73.5,64.7,99,88,60,30.18,30.09,0,0,1,0.00
2013-9-11,96.3,79.2,67.3,80.7,73.8,66.8,99,86,53,30.16,30.01,0,0,0,0.00
2013-9-12,95.7,79.5,67.6,80.0,71.9,66.8,99,80,50,30.03,29.78,0,0,1,0.00
2013-9-13,82.4,72.0,60.3,70.3,59.2,49.5,99,67,39,29.93,29.74,0,0,1,0.00
2013-9-14,80.8,62.1,47.3,57.8,53.0,47.0,99,76,43,30.10,29.91,14,2,14,0.02
2013-9-15,82.8,64.0,46.9,65.9,57.6,46.7,99,82,53,30.19,30.04,6,0,8,0.00
2013-9-16,76.5,65.9,55.6,69.1,61.7,55.1,99,87,65,30.19,30.05,0,0,0,0.00
2013-9-17,73.4,60.1,49.1,60.9,55.0,48.8,99,85,56,30.32,30.18,0,0,0,0.00
2013-9-18,73.6,59.1,46.4,61.8,55.1,46.1,99,88,64,30.27,30.12,0,0,1,0.00
2013-9-19,78.3,66.9,61.0,69.9,64.8,60.5,99,93,73,30.14,30.02,0,0,1,0.00
2013-9-20,72.9,66.5,62.8,72.4,66.3,62.5,99,99,99,30.04,29.91,0,0,0,0.51
2013-9-21,68.9,65.2,58.6,68.6,64.9,58.2,99,99,99,29.92,29.66,0,0,1,0.37
2013-9-22,81.3,64.2,51.1,68.1,57.7,50.8,99,82,52,29.90,29.72,0,0,1,0.01
2013-9-23,78.1,61.4,51.6,63.1,56.4,51.4,99,85,58,30.03,29.89,0,0,1,0.00
2013-9-24,80.1,64.2,54.9,67.0,59.8,54.6,99,87,59,30.06,29.88,0,0,1,0.00
2013-9-25,71.6,62.7,54.5,66.5,61.3,54.1,99,95,83,29.92,29.83,0,0,0,0.05
2013-9-26,82.8,68.7,60.1,70.1,61.9,58.6,99,82,47,29.96,29.86,0,0,0,0.01
2013-10-7,72.0,65.9,51.8,70.8,61.3,49.6,99,86,62,30.03,29.75,1,0,1,1.36
2013-10-8,72.1,58.6,49.3,55.1,50.3,48.1,99,77,51,30.21,30.02,0,0,0,0.00
2013-10-9,71.4,56.8,47.5,53.9,50.2,47.2,99,81,50,30.23,30.13,2,0,2,0.00
2013-10-10,69.8,58.7,50.9,63.6,56.6,47.8,99,93,77,30.13,29.94,0,0,0,0.20
2013-10-11,78.8,65.3,59.0,67.3,62.2,58.3,99,90,63,29.95,29.87,0,0,0,0.00
2013-10-12,70.7,64.0,60.3,68.2,63.4,60.0,99,98,90,30.08,29.94,0,0,0,0.06
2013-10-13,69.3,64.6,60.1,66.6,63.5,59.8,99,96,90,30.21,30.07,0,0,0,0.01
2013-10-14,75.9,62.4,58.6,66.7,61.1,58.4,99,96,68,30.25,28.84,0,0,0,0.20
2013-10-15,79.3,61.0,50.9,63.2,57.3,50.6,99,89,55,30.19,30.03,1,0,3,0.00
2013-10-16,74.5,62.1,50.5,64.6,58.4,49.9,99,89,64,30.05,29.89,6,1,7,0.00
2013-10-17,70.7,63.1,58.6,70.1,62.3,55.2,99,97,84,29.91,29.73,6,0,7,0.04
2013-10-18,74.8,58.5,46.2,55.2,48.8,44.7,99,73,43,29.99,29.86,0,0,1,0.00
2013-10-19,64.2,54.7,46.8,60.5,52.2,43.9,99,92,64,29.94,29.75,0,0,1,0.00
2013-10-20,72.9,53.5,40.6,45.4,40.8,36.4,99,65,35,30.05,29.87,0,0,1,0.00
2013-10-21,73.9,52.3,35.1,55.2,46.1,34.6,99,82,49,30.10,29.91,9,1,13,0.00
2013-10-22,69.8,55.8,47.3,56.6,50.4,47.0,99,84,56,29.91,29.75,13,2,17,0.00
2013-10-23,62.4,50.4,43.5,52.3,44.0,31.0,99,81,49,29.92,29.64,25,5,29,0.02
2013-10-24,51.3,43.0,32.7,36.5,33.3,30.9,99,70,50,30.11,29.92,15,3,19,0.00
2013-10-25,53.1,39.6,29.5,35.1,30.7,26.6,99,75,40,30.28,30.11,17,4,20,0.00
2013-10-26,65.1,43.8,24.3,38.9,30.1,24.0,99,66,25,30.28,29.93,15,2,20,0.00
2013-10-27,75.4,55.1,40.1,45.8,40.3,35.5,96,61,33,30.05,29.94,20,2,25,0.00
2013-10-28,72.7,51.8,37.6,56.8,47.6,37.3,99,87,52,30.20,30.05,6,1,9,0.00
2013-10-29,74.1,61.4,51.8,59.7,55.6,51.5,99,83,58,30.29,30.17,6,1,8,0.00
2013-10-30,78.8,61.8,53.6,66.2,58.8,53.3,99,91,64,30.23,30.07,8,1,11,0.08
2013-10-31,73.2,63.5,56.5,66.1,60.6,56.2,99,91,71,30.11,29.73,9,2,14,0.00
2013-11-1,82.4,69.6,54.0,66.8,60.8,48.4,99,77,35,29.73,29.57,14,4,17,0.06
2013-11-2,71.1,58.5,46.6,51.3,43.5,33.6,99,61,35,29.84,29.64,23,5,26,0.00
2013-11-3,62.8,51.0,37.4,39.4,36.5,33.3,90,59,39,30.32,29.91,13,5,13,0.00
2013-11-4,53.4,42.1,28.9,39.1,31.7,28.7,99,70,42,30.50,30.32,5,1,5,0.00
2013-11-5,53.4,45.4,33.4,45.3,36.7,29.0,93,73,49,30.52,30.37,4,1,4,0.00
2013-11-6,70.9,56.5,47.3,55.8,50.9,45.9,99,83,59,30.38,30.04,8,2,8,0.00
2013-11-7,61.5,47.5,42.6,59.1,36.5,27.6,99,67,50,30.08,29.89,15,5,19,0.02
2013-11-8,54.5,43.0,29.5,31.3,27.5,24.3,94,56,35,30.25,30.07,21,5,24,0.00
2013-11-9,62.1,42.5,26.1,38.4,30.2,25.8,99,67,33,30.28,28.84,11,2,11,0.00
2013-11-10,69.8,55.2,43.7,40.0,31.8,25.1,57,42,22,30.21,29.98,24,8,27,0.00
2013-11-11,65.1,48.3,29.8,33.4,29.2,25.6,89,51,28,30.27,30.01,11,2,13,0.00
2013-11-12,54.3,48.2,41.0,39.7,30.2,23.8,67,50,35,30.17,28.87,17,5,21,0.00
2013-11-13,48.2,35.7,27.9,21.9,15.6,11.2,69,45,25,30.44,30.35,14,6,14,0.00
2013-11-14,66.0,41.4,23.0,26.2,20.3,17.5,81,50,18,30.35,30.19,12,2,12,0.00
2013-11-15,67.5,46.0,27.5,52.6,33.9,23.8,99,71,24,30.23,30.09,11,2,11,0.28
2013-11-16,59.4,53.6,46.9,57.4,53.2,46.7,99,98,90,30.22,30.14,5,1,6,0.06
2013-11-17,61.5,57.1,53.2,61.1,56.8,53.0,99,99,99,30.15,29.73,14,5,15,0.07
2013-11-18,69.6,60.3,49.1,61.4,40.7,27.7,99,51,29,29.95,29.70,23,8,28,0.06
2013-11-19,56.8,45.3,39.0,29.6,27.4,25.5,61,50,35,30.26,29.93,22,6,24,0.00
2013-11-20,52.0,41.3,32.4,28.7,26.1,24.1,76,56,36,30.41,30.24,10,3,11,0.00
2013-11-21,52.5,45.2,39.4,44.5,38.0,27.8,87,76,62,30.44,30.31,5,1,5,0.00
2013-11-22,71.1,57.7,46.6,61.3,52.7,43.6,99,84,63,30.33,30.00,10,1,11,0.00
2013-11-23,59.7,48.3,32.4,54.2,33.4,13.3,83,59,30,30.17,30.01,29,9,34,0.00
2013-11-24,34.2,27.4,21.6,15.8,4.4,-0.3,52,37,24,30.44,30.17,25,10,29,0.00
2013-11-25,40.8,28.4,17.4,15.2,10.5,4.5,73,48,31,30.44,30.25,8,2,9,0.00
2013-11-26,42.8,35.2,30.7,42.5,33.0,13.8,99,93,42,30.26,29.55,11,1,14,1.02
2013-11-27,44.1,35.2,26.4,43.8,28.3,12.2,99,77,54,30.07,29.51,24,9,30,0.04
2013-11-28,47.3,31.8,23.4,24.1,18.0,12.2,96,59,34,30.35,30.06,18,4,23,0.00
2013-11-29,51.8,34.1,21.6,27.9,24.2,21.1,99,72,38,30.57,30.34,10,2,12,0.00
2013-11-30,43.7,30.5,19.9,31.1,23.7,19.7,99,78,49,30.57,30.27,7,1,8,0.00
2013-12-1,63.0,37.5,19.6,34.6,27.3,19.4,99,73,31,30.27,29.94,8,1,10,0.00
2013-12-2,55.6,42.6,31.1,40.6,36.4,30.9,99,81,55,29.94,29.76,5,0,5,0.00
2013-12-3,63.0,46.8,34.7,47.6,41.9,34.5,99,85,52,29.90,29.78,6,1,7,0.00
2013-12-4,65.8,53.3,42.1,57.7,51.3,41.8,99,94,69,30.00,29.88,10,2,11,0.00
2013-12-5,70.9,58.7,48.4,66.5,58.0,48.1,99,98,85,30.02,29.89,7,1,11,0.01
2013-12-6,74.3,63.9,46.8,73.9,63.0,46.5,99,97,85,30.01,29.80,19,2,24,0.76
2013-12-7,48.2,43.0,38.8,47.2,38.3,33.2,99,84,66,30.39,29.99,12,4,14,0.06
2013-12-8,39.0,32.0,28.6,35.0,30.4,28.3,99,94,76,30.39,30.17,7,1,8,0.02
2013-12-9,54.0,38.9,31.3,50.8,38.3,31.0,99,98,86,30.17,29.96,6,1,7,0.08
2013-12-10,43.0,37.1,32.0,41.1,31.3,18.4,99,81,54,30.19,29.89,23,5,30,0.30
2013-12-11,55.2,38.5,27.7,27.5,21.2,16.9,79,51,32,30.32,30.15,16,4,19,0.00
2013-12-12,41.4,33.1,25.0,21.1,13.0,6.2,61,44,24,30.32,30.19,17,6,24,0.00
2013-12-13,53.6,37.4,25.2,25.7,16.5,10.2,60,44,29,30.25,30.13,8,3,11,0.00
2013-12-18,47.8,41.7,36.1,43.1,36.0,30.8,99,80,68,30.38,30.10,12,4,12,0.00
2013-12-19,36.1,30.9,28.6,32.7,30.2,28.3,99,97,83,30.39,30.07,4,0,4,0.02
2013-12-20,53.6,40.1,32.2,49.2,39.4,31.9,99,97,85,30.07,29.92,4,2,4,0.09
2013-12-21,42.8,36.2,30.9,40.7,28.1,17.5,99,74,54,30.23,29.89,17,7,17,0.28
2013-12-22,54.7,39.1,27.7,26.1,21.3,17.5,77,50,33,30.31,30.15,21,4,21,0.00
2013-12-23,41.2,31.7,25.3,18.9,11.3,6.7,59,44,24,30.32,30.21,11,4,11,0.00
2013-12-24,53.4,31.4,23.9,24.4,13.6,8.8,57,48,29,30.38,30.14,15,6,18,1.19
2013-12-25,39.0,26.4,14.5,19.0,12.4,8.7,90,58,33,30.44,30.25,8,2,8,0.00
2013-12-26,51.4,34.8,19.9,29.7,21.1,14.7,92,60,35,30.29,30.15,17,3,17,0.00
2013-12-27,59.0,36.2,21.7,29.3,23.4,20.3,98,66,27,30.36,30.24,11,2,13,0.00
2013-12-28,62.4,40.9,23.7,40.0,28.2,22.6,99,68,26,30.30,30.07,10,1,11,0.07
2013-12-29,54.0,45.0,39.7,51.9,42.4,39.5,99,91,75,30.07,29.60,19,4,23,0.61
2013-12-30,47.5,43.0,36.5,40.8,34.2,27.8,79,71,64,30.07,29.83,21,6,24,0.00
2013-12-31,49.6,38.1,27.1,30.7,23.4,16.8,92,58,32,30.26,30.03,25,4,33,0.00
2014-1-1,54.5,37.0,23.4,29.9,24.8,18.8,96,65,35,30.29,30.02,12,3,15,0.00
2014-1-2,42.1,33.9,26.4,38.2,31.1,21.5,99,90,67,30.02,29.55,21,2,27,0.09